Regional Weather Roundup
Issued by NWS Sioux Falls, SD

Home | Current Version | Previous Version | Text Only | Print | Product List | Glossary Off
Versions: 1 2 3 4 5 6 7 8 9 10 11 12 13 14 15 16 17 18 19 20 21 22 23 24 25 26 27 28 29 30 31 32 33 34 35 36 37 38 39 40 41 42 43 44 45 46 47 48 49 50

186
ASUS43 KFSD 171202
RWRFSD

WEATHER ROUNDUP FOR SE SOUTH DAKOTA/SW MINNESOTA/NW IOWA
NATIONAL WEATHER SERVICE SIOUX FALLS SD
600 AM CST SAT FEB 17 2018

NOTE: "FAIR" INDICATES FEW OR NO CLOUDS BELOW 12,000 FEET WITH NO
SIGNIFICANT WEATHER AND OR OBSTRUCTIONS TO VISIBILITY.


SDZ038>040-050-052>070-171300-
SOUTHEAST SOUTH DAKOTA

CITY           SKY/WX    TMP DP  RH WIND       PRES   REMARKS
BROOKINGS      CLOUDY    23  21  92 SW3       29.83R
CHAMBERLAIN    MOCLDY    24  20  87 CALM      29.86R
6HR MIN TEMP:  22; 6HR MAX TEMP:  33;

HURON          CLOUDY    17  16  95 W7        29.86R WCI   8
6HR MIN TEMP:  16; 6HR MAX TEMP:  27;

MADISON        CLOUDY    25  25 100 MISG      29.83R
MITCHELL       CLOUDY    26  24  92 W5        29.88R WCI  20
6HR MIN TEMP:  24; 6HR MAX TEMP:  31; 6HR PCP: TRACE;

SIOUX FALLS    CLOUDY    25  23  92 SW7       29.85R WCI  17
6HR MIN TEMP:  25; 6HR MAX TEMP:  28; 6HR PCP:  0.11;

WINNER         FAIR      25  20  81 SW7       29.88R WCI  17
YANKTON        CLOUDY    26  25  96 SE3       29.86R
$$

MNZ071-072-080-081-089-090-097-098-171300-
SOUTHWEST MINNESOTA

CITY           SKY/WX    TMP DP  RH WIND       PRES   REMARKS
FAIRMONT       CLOUDY    23  16  74 S13       29.89S WCI  11
JACKSON        CLOUDY    23  18  80 S9        29.87S WCI  13
LUVERNE        LGT SNOW  23  21  93 S5        29.86S VSB 3/4 WCI  17
MARSHALL       CLOUDY    27  22  81 SW13      29.84R WCI  16
6HR MIN TEMP:  25; 6HR MAX TEMP:  28;

MONTEVIDEO     CLOUDY    27  19  74 W6        29.83S WCI  20
PIPESTONE      CLOUDY    23  21  93 SW7       29.83R WCI  15
REDWOOD FALLS  CLOUDY    25  23  92 SW12      29.84S WCI  14
TRACY          LGT SNOW  26  24  92 SW13      29.84R WCI  15
WINDOM         LGT SNOW  25   9  50 SW9       29.86S VSB 3/4 WCI  15
WORTHINGTON    LGT SNOW  22  19  89 SW12      29.86R FOG     WCI  10
$$

IAZ001>003-012>014-020>022-031-032-NEZ013-014-SDZ071-171300-
NORTHWEST IOWA

CITY           SKY/WX    TMP DP  RH WIND       PRES   REMARKS
CHEROKEE       CLOUDY    26  17  70 S6        29.88S WCI  19
DENISON        CLOUDY    28  16  59 S14G21    29.89F WCI  17
ESTHERVILLE    CLOUDY    21  15  78 S12       29.87F WCI   9
LE MARS        LGT SNOW  25  23  93 S9        29.88S WCI  15
ORANGE CITY    LGT SNOW  25  23  93 SW10      29.87R WCI  15
SHELDON        MIX PCPN  23  19  86 S8        29.86R WCI  14
SIOUX CITY     LGT SNOW  25  22  88 SW12      29.90S VSB 1   WCI  14
6HR MIN TEMP:  24; 6HR MAX TEMP:  28; 6HR PCP:  0.01;

SPENCER        CLOUDY    24  15  68 SW6       29.88F WCI  17
6HR MIN TEMP:  23; 6HR MAX TEMP:  25;

STORM LAKE     CLOUDY    25  18  74 S7        29.87F WCI  17
$$

ABBREVIATIONS USED IN REMARKS
   TC - TEMPERATURE IN CELSIUS
  WCI - WIND CHILL INDEX
   HX - HEAT INDEX
  VSB - VISIBILITY





USA.gov is the U.S. government's official web portal to all federal, state and local government web resources and services.